Theta_e
356 356 355 355 355 355 355 354 354 354 353 354 354 355 355 355 354 355 355 355 355 355 356 356 356 357 357 357 356 356 356 356 355 354 354 354 353 351 349 350 351 353 354 354 354 354 354 355 355 354 354 354 355 357 357 355 356 356 355 355 355 354 354 354 354 353 352 350 350 351 353 352 351 353 356 357 355 355 356 355 356 356 356 356 356
358 357 357 356 355 355 355 355 354 354 354 354 354 354 354 355 354 354 354 354 355 355 355 355 355 356 357 357 357 356 356 357 356 355 355 356 355 354 352 351 351 352 354 354 353 351 352 354 356 355 355 355 355 357 358 356 357 357 357 357 357 355 354 354 354 354 353 351 350 352 354 353 352 352 354 356 356 355 355 354 354 354 354 356 357
359 358 358 358 357 356 355 354 353 353 354 354 354 354 354 354 353 353 353 352 353 354 354 354 354 355 356 357 357 357 357 357 357 356 356 356 356 355 355 355 354 355 356 355 354 351 350 352 355 355 355 355 356 358 358 358 357 358 358 357 357 357 356 355 354 355 355 354 353 353 354 354 353 351 351 351 352 351 350 350 351 352 353 355 357
359 360 360 360 358 357 356 355 353 353 354 354 355 354 354 354 352 351 351 351 351 352 353 353 354 355 356 356 357 357 357 358 357 356 356 356 356 356 356 355 354 355 356 357 355 354 351 351 353 354 353 354 356 358 359 357 356 357 356 355 355 355 356 356 355 355 355 355 355 354 354 354 352 351 350 351 351 351 352 353 354 355 355 357 358
357 358 358 358 356 355 355 356 355 353 353 354 354 353 353 354 353 351 351 351 351 351 352 352 353 354 355 355 356 356 356 356 356 357 357 356 355 355 356 355 354 354 355 356 356 355 354 353 353 354 354 354 356 357 358 357 356 355 354 354 353 353 354 355 356 356 355 356 355 353 352 352 352 352 351 352 354 354 354 354 354 354 354 355 357
354 355 356 356 356 355 355 355 356 356 354 354 354 354 353 353 354 352 351 351 351 350 350 351 352 353 354 354 355 355 355 355 355 356 356 356 355 355 355 355 354 354 354 354 355 355 355 354 354 354 355 354 355 355 356 356 356 355 354 353 353 352 351 353 354 355 355 355 355 353 352 352 352 352 352 353 354 354 354 352 350 350 351 350 352
352 353 354 355 355 354 352 353 355 356 356 355 355 354 353 352 353 353 352 350 351 350 349 351 351 351 352 352 353 353 355 355 354 354 355 355 355 354 354 354 353 354 353 353 354 355 355 355 354 354 354 354 354 354 354 354 354 354 353 352 352 352 352 351 351 352 353 352 352 352 352 352 353 353 352 353 354 354 354 352 350 348 348 348 348
352 352 353 354 354 352 352 353 354 354 355 356 355 355 354 351 350 351 351 350 350 350 349 350 350 351 350 350 350 350 353 355 355 354 354 353 354 354 353 353 353 354 354 353 353 353 354 355 355 355 355 355 355 354 354 354 353 353 353 352 351 351 352 351 350 351 351 350 350 351 352 354 354 353 353 354 355 353 350 351 352 350 348 348 348
353 353 353 353 353 353 353 353 353 352 353 354 354 354 353 351 349 348 349 350 350 350 349 349 349 349 349 350 350 349 351 353 354 354 354 353 353 353 353 352 352 352 353 354 354 353 352 353 354 355 356 355 355 355 354 353 353 353 353 352 352 351 351 351 349 350 351 351 351 351 352 353 353 352 353 352 352 351 348 350 352 350 349 350 349
352 352 351 352 352 352 352 351 352 351 351 352 352 352 352 352 350 349 347 347 348 349 349 349 348 348 348 348 349 349 350 351 352 353 353 353 353 353 352 352 352 351 352 353 354 353 352 352 352 353 353 354 354 353 353 353 352 352 352 351 351 351 351 351 350 350 351 351 351 351 352 353 352 352 352 349 347 348 350 351 351 350 351 352 350
353 352 352 351 350 351 351 351 351 351 350 351 351 350 351 351 351 350 348 346 347 347 348 349 348 347 347 347 348 349 349 349 350 350 350 351 351 352 352 353 352 352 352 353 354 354 352 352 352 352 352 352 352 352 352 353 352 352 351 351 351 350 350 351 351 351 351 351 351 351 352 353 351 349 350 347 344 345 347 349 351 353 353 352 352
350 351 352 353 352 352 352 351 351 351 351 352 352 351 351 351 351 351 349 347 346 346 346 348 349 348 347 347 347 348 348 347 347 348 349 349 349 350 351 352 352 352 352 352 354 354 354 353 352 353 353 352 352 352 351 352 352 351 351 350 350 350 350 349 349 351 351 351 352 352 352 352 350 346 345 343 341 341 343 346 349 351 352 352 352
344 346 348 350 352 353 353 352 352 352 352 352 352 352 352 352 351 351 350 349 349 348 346 346 348 349 348 347 346 347 348 348 347 346 347 347 348 349 350 351 351 352 352 351 352 353 354 354 354 353 353 352 352 352 351 351 351 350 350 349 348 349 350 350 349 349 350 351 352 351 350 349 347 345 341 341 341 342 344 345 345 347 350 350 350
341 343 344 345 348 351 353 354 354 354 354 353 353 353 353 353 353 352 351 350 350 349 347 345 347 349 349 349 347 346 346 347 347 347 347 346 346 348 349 350 351 352 352 352 352 351 351 351 352 353 353 352 352 351 351 351 350 349 348 347 347 346 347 349 350 350 350 352 352 351 349 347 345 343 341 341 343 343 345 345 345 347 348 348 349
341 342 343 344 346 348 350 352 353 353 354 354 354 354 355 355 354 354 353 352 352 351 350 348 347 347 349 350 350 349 347 347 347 348 348 348 348 349 350 351 352 353 353 353 353 352 351 349 349 348 349 350 350 350 350 350 350 349 348 347 346 346 345 345 346 347 348 350 351 350 348 346 345 343 342 344 345 345 346 346 345 345 345 345 346
340 342 342 342 344 346 347 347 348 349 351 352 354 354 355 355 355 355 355 354 354 353 353 352 350 349 349 350 351 351 351 350 349 349 349 349 349 350 351 352 353 353 354 354 354 353 353 351 350 348 346 345 345 346 347 348 349 349 349 348 346 345 344 342 342 344 345 345 347 347 347 346 346 344 344 346 347 347 348 348 346 345 344 344 345
338 340 341 339 338 341 343 344 345 344 344 346 348 349 351 353 354 354 354 355 355 355 354 354 354 353 352 351 351 352 352 352 352 351 351 351 350 350 349 349 350 350 351 352 353 353 353 353 352 351 348 346 344 342 343 345 348 348 348 348 348 347 345 344 343 344 344 343 344 344 345 345 346 346 346 347 347 348 351 350 349 349 345 343 344
334 337 339 338 337 337 339 340 341 341 340 338 339 342 345 348 350 352 352 353 354 354 354 354 354 354 354 353 354 354 353 353 352 351 352 352 352 352 351 350 350 349 349 348 349 349 351 352 352 352 351 349 347 344 343 345 347 349 349 349 349 349 348 347 347 347 346 346 346 346 346 346 347 347 347 347 347 348 351 352 351 350 345 342 344
330 333 336 338 338 336 335 336 337 339 338 334 333 337 340 343 346 348 349 351 352 352 353 353 353 354 354 354 354 355 355 354 353 352 352 351 352 353 353 353 353 353 352 352 351 349 349 349 350 351 351 351 350 348 347 347 348 348 349 350 350 350 348 348 348 349 349 349 348 348 348 348 348 349 348 348 347 346 349 351 350 350 347 345 344
327 329 332 335 333 330 331 333 334 336 337 335 334 335 336 338 340 341 342 345 349 350 351 352 353 353 353 354 354 355 355 355 354 354 353 352 351 351 352 352 353 353 353 353 353 353 352 351 350 349 349 349 349 349 348 347 347 346 346 348 349 347 345 345 347 348 348 349 349 349 349 349 349 349 348 348 348 347 347 348 349 350 349 347 345
326 327 331 332 330 326 327 330 331 332 334 335 335 335 334 336 338 338 338 340 345 348 350 350 351 352 352 353 354 354 354 355 355 355 354 353 352 352 352 352 352 353 353 352 353 353 353 353 353 351 349 347 347 348 348 347 346 345 345 346 346 345 345 348 349 349 349 349 349 349 349 349 349 349 349 348 349 349 349 350 351 352 351 349 348
324 325 326 326 326 325 326 329 329 328 328 329 331 334 335 337 339 340 340 339 341 344 346 346 347 349 350 352 353 354 355 355 355 355 355 354 354 354 353 353 353 354 355 354 354 355 355 355 355 353 351 348 347 348 348 348 348 347 347 347 347 348 350 352 352 352 351 350 350 350 350 350 350 350 350 350 351 351 352 352 353 354 353 352 351
322 323 324 323 324 325 327 329 328 326 326 327 329 332 335 337 339 340 341 342 341 338 338 342 345 348 349 351 351 351 352 353 354 355 354 355 355 354 354 355 354 355 355 355 355 355 355 355 355 354 351 349 349 349 350 351 351 350 350 350 350 352 353 354 355 354 352 351 350 350 350 351 351 351 351 352 352 352 353 353 353 353 353 352 353
321 323 324 324 324 325 326 327 326 326 327 329 329 330 332 334 336 337 338 341 342 337 336 343 349 350 350 351 350 349 350 351 351 352 352 352 352 352 352 353 353 353 353 353 354 354 353 352 352 352 351 350 350 352 353 354 354 353 353 353 354 355 355 356 357 356 353 351 350 351 352 353 352 352 352 352 353 352 353 353 353 353 353 353 353
322 323 323 324 325 325 326 327 328 328 329 329 329 330 332 334 337 338 339 341 343 342 342 345 348 348 348 347 346 346 347 348 349 350 350 350 350 350 350 351 351 351 351 352 353 353 352 352 351 350 350 349 350 352 353 355 355 355 355 355 355 356 356 356 356 354 352 351 351 352 353 354 354 354 353 353 353 353 353 354 354 354 353 353 353
321 321 320 321 322 323 324 326 328 328 328 328 328 328 330 333 334 336 338 339 342 344 346 346 344 343 342 340 338 338 337 338 339 341 343 346 348 349 350 350 351 351 352 352 353 353 352 352 351 351 350 350 350 350 351 353 354 354 354 353 353 354 354 353 352 350 350 351 352 352 353 354 354 354 354 353 353 353 353 353 353 354 353 353 353
319 319 318 318 318 319 321 323 325 325 325 327 327 328 328 329 328 329 332 333 334 339 343 344 342 340 340 338 336 335 334 330 328 329 333 338 341 344 349 351 351 352 352 352 352 351 351 351 351 351 350 350 351 351 351 352 353 353 352 352 352 352 353 352 350 350 350 351 350 351 352 352 352 352 353 353 352 353 353 353 353 353 353 352 352
317 317 318 318 318 318 319 320 320 320 321 323 325 326 327 328 328 329 330 331 332 333 336 337 337 337 338 337 337 337 336 332 329 328 331 335 338 342 347 349 350 350 351 350 348 347 346 347 348 350 350 351 351 352 352 352 353 353 352 352 352 353 353 353 351 352 352 352 352 351 352 351 351 351 352 352 352 353 353 352 352 352 352 352 351
316 316 317 318 318 318 318 317 317 318 319 320 321 323 325 327 328 329 329 330 330 331 332 334 334 334 335 337 337 337 336 334 333 333 333 335 338 341 342 342 342 343 344 343 342 342 341 342 343 345 347 349 349 350 352 352 352 353 353 353 353 353 353 353 353 353 354 354 353 352 351 351 351 351 351 351 351 352 352 352 352 352 351 351 351
316 316 316 317 318 318 318 317 317 318 319 318 319 321 323 325 326 326 327 328 327 328 330 332 332 332 333 335 336 337 337 336 335 335 335 335 336 337 337 337 337 338 338 338 339 339 341 342 342 343 344 345 345 346 348 350 351 353 353 353 353 353 353 353 353 354 354 354 353 352 351 350 349 349 350 350 350 351 352 352 352 352 351 351 351
316 317 317 316 317 317 317 317 317 318 318 318 318 320 322 323 324 325 326 326 324 323 325 328 331 332 332 333 334 335 335 335 334 334 335 336 336 336 336 337 337 338 338 338 338 339 339 340 341 342 343 343 343 344 346 347 350 351 352 353 353 353 354 353 354 354 354 354 353 352 351 349 349 349 349 349 350 350 351 351 351 351 352 351 351
317 317 316 316 316 316 316 317 317 317 316 316 317 318 320 322 323 323 324 326 325 323 325 328 331 332 332 331 330 330 330 331 332 333 335 336 336 336 336 337 338 339 339 339 339 339 339 338 339 340 341 343 344 344 345 346 347 348 349 350 351 351 352 352 353 354 354 354 353 351 350 349 349 349 349 349 349 349 350 350 351 351 351 351 351
318 318 317 317 317 317 317 316 316 316 316 316 316 317 318 319 319 319 321 324 325 326 327 329 330 330 329 328 327 325 328 332 334 334 335 336 336 336 337 338 339 338 338 338 338 338 338 338 338 339 340 341 343 344 345 346 346 347 348 349 350 350 351 351 352 353 354 354 352 351 350 349 349 350 350 350 349 349 349 349 350 350 351 351 351
317 318 318 318 318 318 317 317 316 316 316 316 316 316 316 316 317 317 318 321 323 325 328 329 328 327 325 324 325 327 330 332 332 332 333 334 336 336 337 338 337 335 335 336 337 337 338 339 339 340 341 342 342 343 344 345 346 347 347 348 349 350 350 351 352 353 353 353 352 352 351 351 351 351 350 350 350 350 349 349 350 350 350 351 351
315 316 317 318 318 318 317 317 317 317 316 316 316 316 316 316 317 317 318 319 321 324 327 328 327 325 325 326 328 329 329 330 331 332 333 334 336 336 336 334 332 332 333 335 336 337 338 338 338 339 340 341 342 344 345 346 347 348 348 349 349 350 351 351 352 352 353 353 352 352 352 352 351 351 350 350 349 350 350 350 350 350 351 351 351
312 313 314 316 317 317 316 316 316 316 317 317 317 317 317 317 317 318 318 319 320 322 324 326 326 326 326 328 326 324 327 331 334 335 335 335 335 334 333 330 329 329 331 333 333 333 333 333 333 333 334 335 337 340 342 343 344 344 346 346 347 348 349 350 351 352 353 353 353 352 352 351 351 350 349 349 348 349 349 350 350 350 351 351 351
309 311 313 314 315 315 315 315 314 315 316 317 318 318 318 318 318 319 320 320 321 321 322 325 326 325 326 326 324 322 326 333 335 334 333 333 332 330 329 328 327 328 329 328 328 327 327 327 326 326 327 328 330 332 334 335 337 338 339 340 340 341 343 345 347 349 350 350 350 351 350 350 350 349 348 348 349 349 349 349 349 350 350 350 351
308 310 312 313 313 313 314 314 314 315 316 317 318 318 319 319 320 320 320 321 322 322 323 325 325 324 323 324 322 322 326 331 332 331 330 329 328 327 327 326 326 326 325 324 323 322 322 322 322 322 322 322 324 326 328 329 331 332 333 334 335 336 337 339 340 342 345 346 346 347 348 348 349 350 350 350 350 350 350 350 350 350 350 350 350
308 309 310 311 312 312 312 313 313 314 315 317 317 318 319 320 320 320 321 321 322 323 323 324 324 324 323 323 323 325 327 329 329 328 328 327 327 326 326 325 324 324 323 322 320 319 318 317 318 317 317 318 319 321 324 325 326 327 328 329 330 332 333 334 335 336 338 340 342 343 344 345 346 347 348 349 350 350 351 351 351 350 350 350 350
308 308 310 310 311 311 311 312 313 314 315 317 317 318 318 318 319 319 320 320 321 322 322 322 323 323 324 324 325 326 327 327 326 326 326 325 325 325 324 324 323 321 320 319 317 316 314 313 313 313 313 314 315 318 319 321 322 323 324 325 326 327 328 329 330 332 333 335 337 338 340 341 342 342 343 345 347 348 350 350 351 351 351 350 351
308 309 309 310 310 310 310 311 313 314 314 315 316 316 316 317 318 319 319 320 320 321 322 322 323 323 324 324 325 325 325 325 324 324 324 323 323 322 322 321 320 318 317 316 314 313 312 312 311 311 311 311 312 314 315 316 317 319 320 322 323 324 325 327 328 329 331 332 333 334 335 337 338 339 341 341 342 344 345 346 348 348 349 349 350
308 308 308 308 308 309 309 310 311 312 312 312 313 314 315 317 317 318 319 319 319 320 321 322 322 322 323 324 325 324 324 323 323 322 321 321 320 320 319 318 317 316 315 314 313 312 312 312 312 311 310 310 310 311 311 312 313 314 315 317 318 320 322 325 327 328 329 329 330 330 331 332 334 335 337 338 339 339 340 341 342 344 346 347 348
306 306 306 307 307 308 308 308 309 309 310 310 311 312 314 315 316 317 318 318 318 319 320 320 321 322 322 323 323 323 322 322 321 321 319 319 318 318 317 317 316 315 314 313 312 311 311 312 312 311 310 309 309 309 309 310 310 310 311 312 313 314 317 320 322 323 323 324 324 325 326 328 329 329 330 331 332 333 335 337 338 339 341 343 344
303 303 304 304 305 305 306 306 306 307 308 309 310 310 311 312 313 314 315 316 317 318 319 319 320 321 321 322 322 322 321 320 319 319 319 318 317 316 316 315 314 313 313 312 312 311 310 310 311 311 311 310 309 308 308 309 309 309 309 309 309 310 312 314 316 317 317 317 318 320 320 322 322 322 323 325 326 328 330 331 333 335 337 339 341
301 301 301 302 302 303 304 304 305 306 307 308 309 310 310 312 313 313 314 315 316 317 318 319 319 319 320 321 322 320 319 318 318 318 318 317 316 315 314 313 312 312 312 311 311 310 309 309 309 310 310 309 309 308 308 308 308 308 307 307 307 308 309 310 312 312 312 313 314 315 315 316 317 317 318 319 321 323 325 327 329 331 333 335 336
300 300 301 301 302 303 304 305 306 307 308 309 309 310 310 311 312 312 313 314 315 316 317 318 319 319 320 321 321 319 318 317 317 317 316 315 315 313 312 311 310 310 310 309 309 309 308 307 307 307 308 308 307 307 307 307 307 307 307 307 307 308 308 309 310 310 311 311 312 312 313 314 314 315 315 316 318 319 322 324 327 328 329 331 333
300 301 301 302 303 304 305 305 306 307 307 307 308 309 309 310 311 312 313 314 314 314 315 317 318 319 319 319 319 317 316 316 315 314 314 313 313 312 311 310 309 309 308 308 307 307 306 306 305 305 306 306 306 306 306 306 306 306 307 307 307 308 308 308 309 310 310 311 312 312 313 313 313 314 315 316 318 320 322 324 326 327 328 329 330
301 301 302 303 303 304 304 304 304 305 305 306 306 307 308 309 311 311 312 313 313 314 315 316 317 317 317 316 315 314 313 313 312 312 311 311 310 310 309 308 308 307 307 306 306 305 305 304 304 304 304 304 304 304 304 305 305 305 305 306 307 307 307 307 308 309 311 311 312 313 313 313 314 315 316 317 319 320 322 323 325 326 326 327 327
300 300 300 301 301 302 302 302 301 302 303 303 304 305 306 308 309 310 310 310 311 311 312 313 314 314 314 313 312 312 311 311 310 310 310 309 309 308 308 307 306 305 305 305 304 303 303 303 303 302 302 302 302 302 303 303 303 303 304 304 305 306 306 307 308 310 310 311 312 313 315 316 317 317 318 318 319 320 322 323 324 324 325 326 326
298 298 298 299 299 300 300 300 299 300 301 302 302 303 304 305 306 307 308 308 308 309 309 310 310 311 310 310 310 309 309 308 308 308 308 307 307 306 306 305 304 304 303 303 302 302 301 301 301 301 301 301 301 301 301 301 301 301 302 303 303 304 305 307 309 310 311 311 313 315 317 318 318 319 318 318 319 320 321 322 322 322 322 323 322
296 296 297 297 297 298 298 298 298 299 299 300 301 301 301 301 303 304 305 306 306 307 307 308 308 308 308 308 308 307 307 306 306 305 305 305 305 304 304 303 302 302 301 301 300 300 300 300 300 299 299 299 299 299 299 300 300 300 301 301 302 303 304 306 308 310 311 312 314 315 316 317 318 318 318 318 319 320 320 320 320 319 319 319 319
Wind_Speed
30 30 31 30 29 30 30 29 27 27 26 25 24 23 22 22 22 22 22 21 21 21 21 21 20 18 20 21 18 17 17 16 16 16 16 16 15 14 13 13 14 14 13 12 11 12 12 12 12 11 11 12 10 8 8 8 7 7 7 8 9 8 9 8 7 11 17 16 14 12 11 11 11 10 9 9 8 9 10 11 11 12 14 15 14
30 30 30 30 30 30 30 30 29 27 27 27 26 25 24 23 22 22 23 23 22 22 22 22 22 21 21 21 19 18 18 18 17 17 16 16 15 14 14 14 15 15 15 13 12 12 13 13 13 12 12 12 12 10 10 10 9 9 10 11 13 12 12 12 11 11 15 17 15 13 13 13 13 12 11 12 12 12 12 12 12 14 15 15 15
31 32 30 30 30 29 29 29 29 28 27 27 27 27 26 25 24 24 24 23 23 23 23 23 24 24 23 22 21 20 19 19 19 18 17 17 16 15 14 14 15 15 15 15 13 13 13 14 14 13 12 13 13 12 12 13 12 12 13 13 15 16 14 14 14 13 15 16 15 15 15 15 16 15 14 14 15 16 15 14 13 14 14 14 14
28 31 30 28 26 25 26 28 29 29 29 28 28 28 27 26 26 26 25 24 24 25 25 24 24 25 26 24 23 22 21 20 20 20 19 18 17 16 15 15 15 16 16 16 15 14 14 16 16 13 12 13 14 14 14 14 14 14 15 14 15 17 17 16 16 15 16 17 17 17 16 17 17 16 15 15 14 14 14 14 14 14 14 15 15
25 27 27 25 22 19 20 24 27 29 29 28 28 28 28 27 27 27 26 26 26 26 26 26 25 25 26 26 24 23 22 22 22 22 21 20 18 17 16 16 16 16 16 17 17 17 16 17 16 14 13 14 15 15 15 15 15 15 17 17 15 15 16 17 18 18 19 19 19 18 18 17 18 17 16 15 15 15 15 15 15 16 17 17 17
21 24 24 23 25 24 21 21 24 26 28 28 27 27 27 27 27 27 27 27 27 27 27 28 28 27 27 26 25 24 22 22 23 24 24 23 21 19 18 18 18 18 18 18 18 19 18 18 17 15 15 15 16 16 16 16 17 18 18 18 17 17 16 15 16 18 19 20 19 20 20 19 19 19 17 16 16 17 18 19 18 18 18 19 18
21 24 24 23 26 28 24 21 22 25 28 28 27 26 24 23 26 27 28 28 28 28 28 29 30 31 30 28 27 26 24 22 22 23 24 25 24 23 21 20 20 20 20 20 19 19 19 19 19 17 16 16 17 17 17 17 18 19 18 17 17 18 18 16 15 16 17 18 18 19 20 20 19 20 19 17 17 18 19 20 20 19 18 19 20
24 24 23 22 25 26 24 23 22 23 26 27 26 26 23 20 21 25 28 29 29 29 29 29 30 31 31 31 29 27 26 25 24 24 25 25 25 25 24 23 22 22 22 22 21 21 21 20 20 20 19 19 19 19 19 19 19 19 19 18 18 19 19 19 18 18 18 18 18 19 19 19 19 20 21 20 19 20 20 19 20 21 21 21 21
22 21 20 20 21 22 21 22 23 23 25 26 25 25 24 20 18 20 24 26 29 30 30 29 29 31 32 32 31 30 28 27 26 25 26 26 26 26 27 26 25 24 23 23 23 23 23 23 22 22 22 21 21 21 21 21 21 21 22 21 21 21 21 21 20 20 19 18 19 20 18 19 22 22 23 23 23 23 23 21 22 24 24 23 22
17 17 18 17 16 17 17 18 20 21 23 26 26 24 24 21 19 19 21 23 25 28 29 29 29 30 32 33 33 32 31 30 29 28 28 27 27 27 28 28 27 26 25 25 26 26 26 25 25 25 25 24 24 24 24 23 23 24 24 23 23 23 23 23 23 22 21 20 22 22 19 21 25 25 25 26 26 25 25 24 24 24 24 23 22
10 9 10 11 11 12 13 15 17 19 21 24 26 25 25 23 21 22 22 23 23 24 27 29 29 29 30 32 34 34 33 32 32 31 30 30 30 29 29 29 29 28 28 28 28 28 28 27 26 26 26 26 25 25 25 24 24 24 25 25 25 25 26 26 26 25 24 23 23 22 21 22 26 27 27 28 28 27 27 25 25 25 24 19 17
12 10 6 5 7 8 10 12 13 15 18 20 22 24 23 23 23 24 25 26 25 24 25 27 29 31 30 30 33 35 35 35 34 33 32 31 32 32 32 32 31 31 30 30 30 29 28 28 28 28 27 27 26 25 25 25 26 26 26 27 27 28 29 29 28 27 26 25 25 24 24 25 27 28 29 29 29 28 28 27 26 25 24 21 19
12 11 9 6 5 5 7 10 11 13 15 18 20 21 22 23 24 24 25 26 24 25 26 25 25 27 29 29 30 33 35 36 35 34 33 33 33 33 33 33 32 32 32 32 32 31 30 29 29 29 29 29 28 27 27 27 27 27 28 27 27 29 30 32 32 31 30 28 27 28 28 27 28 29 30 30 29 28 28 29 29 27 25 24 26
12 10 9 7 5 5 4 6 7 8 11 13 15 17 19 19 20 21 22 22 21 22 25 25 22 21 22 24 26 29 33 35 35 35 35 34 33 34 34 34 33 32 32 32 32 32 32 32 32 32 31 30 30 29 29 28 28 28 28 27 27 27 27 29 31 33 33 32 30 31 32 31 31 32 32 31 30 30 31 32 31 29 28 28 29
15 12 10 8 7 8 8 7 6 3 3 6 7 9 11 11 12 14 15 16 17 18 20 23 24 21 19 18 18 20 23 28 30 32 33 34 34 33 33 33 33 33 33 33 33 33 33 33 34 34 34 33 32 31 31 30 30 30 30 31 31 30 29 29 29 30 32 34 35 36 37 36 36 35 33 31 31 31 33 33 30 29 30 31 32
15 13 11 11 10 9 9 8 8 7 4 1 1 2 3 4 5 7 8 10 12 13 14 17 20 21 20 18 15 14 14 16 18 22 26 29 32 34 34 33 33 31 31 31 32 33 34 35 35 35 35 35 34 33 32 31 32 32 33 34 34 34 34 32 30 29 29 31 34 35 36 36 36 35 34 32 30 30 31 33 32 30 29 27 28
15 13 13 14 14 13 11 9 8 7 6 4 3 3 3 2 2 3 4 6 7 9 11 13 15 17 17 17 15 14 12 12 13 14 16 19 23 27 29 31 31 32 32 32 31 31 32 34 35 36 37 37 35 34 32 31 32 34 35 35 35 35 35 34 33 32 32 32 33 34 34 34 34 33 33 32 30 30 31 33 33 31 26 20 20
16 14 13 13 14 14 11 10 8 7 7 6 5 4 5 4 3 3 3 5 6 7 9 11 12 13 14 15 15 13 12 13 15 15 16 16 16 18 20 22 23 25 27 29 31 32 33 33 33 34 37 38 38 36 34 33 34 35 35 35 35 35 36 36 35 35 35 35 35 35 35 35 35 34 34 33 31 30 32 34 34 30 24 20 21
15 14 12 10 10 10 9 7 6 5 7 8 7 4 4 4 3 3 3 4 4 5 7 9 10 10 11 12 13 13 13 14 17 19 19 18 17 17 18 20 21 21 22 23 26 29 32 34 35 35 37 38 39 38 37 36 36 35 34 34 33 34 36 35 33 33 34 34 35 36 36 36 35 35 35 34 33 32 32 34 34 31 27 26 26
14 11 10 9 9 10 9 8 8 7 8 10 10 6 4 4 4 3 2 2 2 3 4 5 7 8 8 9 10 11 12 15 18 20 20 19 19 18 18 20 23 25 26 26 27 29 30 32 35 37 39 40 39 38 37 36 36 35 33 32 32 34 35 32 31 31 31 32 33 34 35 35 35 35 35 35 35 34 34 34 34 34 32 30 29
14 11 9 9 9 10 11 11 12 12 11 13 14 11 6 5 5 6 5 4 4 3 3 4 5 6 7 9 10 10 12 14 17 19 18 19 19 19 19 20 22 24 25 26 27 29 30 32 32 34 37 39 40 38 37 36 35 34 33 33 33 34 33 32 32 31 30 31 32 32 33 34 34 35 35 36 36 35 34 33 32 32 31 29 30
16 14 12 12 11 11 12 12 14 16 15 16 17 15 10 8 8 9 8 7 7 6 6 6 6 6 6 7 9 11 12 13 14 14 14 15 16 17 19 20 20 20 21 23 25 27 29 31 31 31 32 35 37 36 36 36 35 35 35 35 34 34 34 34 35 33 31 31 31 31 31 32 33 34 34 35 36 36 35 33 32 32 32 33 32
16 15 15 15 13 13 13 13 15 16 17 17 18 17 14 12 12 12 11 10 10 8 7 8 8 7 6 6 7 9 10 11 12 12 13 15 17 18 20 21 21 22 23 25 26 28 29 30 30 30 30 31 32 32 31 31 32 33 34 33 33 33 33 34 35 34 32 31 29 29 31 32 32 32 33 34 36 36 35 35 36 36 36 37 37
15 16 16 16 16 16 15 15 15 16 17 18 19 19 17 16 15 14 13 12 11 9 9 10 9 8 8 8 8 7 8 9 10 11 11 13 17 20 22 22 22 22 24 26 27 28 28 28 27 28 28 29 28 27 26 27 29 31 31 31 32 32 32 34 35 35 32 30 29 30 33 34 33 33 34 35 35 35 35 36 36 36 36 36 37
15 16 16 17 17 18 17 16 17 18 18 19 20 19 18 17 16 15 14 14 13 12 11 10 9 8 8 10 10 9 9 10 11 10 9 10 12 14 16 17 17 18 20 22 23 23 24 25 25 26 28 28 27 25 25 25 27 28 28 28 28 28 28 28 28 27 27 28 29 31 33 36 36 36 36 36 35 35 36 37 37 37 36 35 36
16 17 17 18 18 19 20 19 19 20 19 19 19 19 18 18 17 15 14 14 14 14 12 8 7 9 9 11 13 14 15 15 15 16 15 14 13 12 12 13 13 15 16 16 16 16 17 19 20 22 24 26 28 29 29 27 26 25 24 23 23 24 24 24 23 23 25 28 29 30 32 35 37 36 36 35 35 36 37 37 37 37 36 34 33
17 17 18 18 19 20 20 20 21 21 20 19 20 19 19 19 18 18 17 15 15 15 12 10 10 12 12 13 14 15 15 16 17 18 19 18 17 16 15 14 12 12 11 11 13 15 15 15 15 16 18 19 22 26 29 31 30 29 27 27 27 27 28 27 26 27 30 32 32 34 36 37 37 37 37 35 35 37 38 36 35 37 36 32 30
17 18 18 18 18 19 20 21 22 23 22 22 21 20 20 21 20 17 16 15 15 15 15 15 15 16 15 15 15 14 14 15 16 17 17 16 16 16 16 16 14 12 11 13 16 19 20 20 19 19 19 19 19 20 24 28 31 33 33 32 32 32 31 29 28 30 33 35 35 36 37 38 37 39 39 36 35 36 36 33 34 36 34 28 25
17 17 18 18 17 18 19 21 22 23 23 23 22 20 19 20 20 18 16 14 14 16 18 17 17 17 16 15 15 15 16 15 16 17 17 16 15 16 17 18 17 16 16 17 20 22 23 22 21 21 21 20 20 20 21 23 25 28 30 31 31 31 29 28 28 31 33 33 34 35 36 37 37 38 36 34 33 34 33 31 32 32 28 25 26
17 17 17 18 17 17 19 21 21 22 23 24 24 22 20 17 17 18 18 16 14 15 16 17 17 17 17 15 14 16 17 17 17 17 17 16 16 17 17 17 18 17 17 18 19 20 21 21 21 20 19 20 21 22 22 22 22 23 23 24 25 25 24 25 27 29 31 31 33 34 34 34 35 34 32 30 31 32 31 29 28 28 26 25 27
17 17 17 17 17 17 19 20 20 20 21 22 24 24 23 21 18 16 17 18 18 17 16 16 16 16 16 15 14 15 16 17 18 18 18 17 17 18 18 17 16 16 17 17 18 19 19 20 21 20 19 19 20 21 22 22 22 22 22 23 23 23 24 26 28 29 31 33 34 34 33 33 34 33 32 30 29 29 29 27 25 25 27 26 26
15 16 16 16 16 17 18 19 19 19 20 22 23 23 23 23 22 19 18 18 19 19 17 15 14 13 12 14 16 16 16 17 18 18 17 17 18 19 18 16 16 16 17 17 17 18 18 19 21 21 20 19 20 19 20 20 21 21 22 23 24 25 26 28 29 30 31 33 33 33 33 32 32 32 32 31 29 28 28 27 25 25 26 27 27
16 16 17 16 16 17 18 17 17 18 19 20 22 22 21 21 22 23 23 20 20 19 17 14 14 15 15 17 18 19 19 18 18 17 16 17 18 19 17 16 15 16 15 15 15 16 16 17 19 20 20 20 20 20 20 20 21 21 22 23 25 27 29 29 30 31 31 31 31 32 31 31 30 31 32 31 29 27 27 27 26 25 25 25 27
15 16 16 16 17 18 18 18 18 19 19 20 21 21 21 21 21 23 23 22 22 22 19 15 15 18 20 19 19 19 19 18 18 18 19 19 19 17 15 14 14 15 16 15 15 16 17 17 19 20 20 21 21 21 21 20 20 21 22 24 26 28 29 30 30 31 31 31 31 32 32 31 31 31 32 31 29 26 25 26 25 25 25 26 27
15 15 16 17 18 19 19 19 19 20 20 21 22 21 22 22 21 22 22 22 22 23 21 19 17 18 19 18 17 17 19 20 22 22 20 18 15 12 11 13 15 17 18 18 16 16 17 18 19 20 20 20 20 20 21 21 20 21 22 24 25 27 28 30 31 32 31 30 31 32 32 31 32 31 31 31 28 25 25 26 25 26 27 27 27
16 16 16 18 19 20 20 20 20 20 20 21 22 22 22 22 21 21 21 22 22 23 24 22 18 16 15 15 17 20 20 18 17 15 12 10 9 9 11 14 17 18 17 16 16 16 17 17 18 19 19 19 18 18 18 17 17 18 18 19 20 21 22 24 26 29 30 30 31 31 31 30 31 30 29 29 28 26 26 26 26 27 28 27 26
16 15 15 17 18 20 20 21 21 21 20 20 21 22 22 22 22 21 21 22 22 24 25 23 18 15 16 16 19 22 20 13 9 9 8 7 8 10 12 13 15 15 15 15 15 15 17 18 20 21 21 22 21 21 21 20 20 19 19 19 20 20 20 21 21 21 23 24 25 27 27 28 29 29 28 27 27 26 26 26 25 27 28 28 26
15 14 15 16 17 18 19 21 21 21 21 21 21 21 21 21 21 20 21 21 22 22 23 22 20 20 21 21 21 22 18 13 10 8 7 6 7 8 10 12 13 13 14 15 15 16 18 21 23 23 23 24 24 24 24 24 23 23 23 24 25 26 25 25 23 22 21 21 21 21 22 24 25 26 25 26 25 25 25 26 25 25 25 25 25
15 15 16 16 17 18 19 19 19 20 21 21 21 21 20 20 20 20 21 21 21 21 21 22 22 23 22 21 20 18 15 12 10 8 6 7 7 8 9 12 12 12 13 15 17 18 20 23 25 25 25 26 25 24 23 24 25 26 26 25 26 28 28 28 27 26 24 23 23 23 22 23 24 24 23 24 24 24 25 26 26 25 25 25 25
16 16 16 16 17 19 19 19 18 19 19 19 19 20 20 21 21 21 21 21 21 21 21 22 23 22 21 20 18 15 13 12 11 10 9 9 8 8 10 12 12 12 13 15 18 20 21 21 20 20 21 23 23 22 23 24 25 26 27 26 27 28 29 28 27 26 26 25 25 26 26 27 27 26 25 25 24 24 25 25 25 24 24 25 25
16 15 15 16 17 18 19 18 18 18 18 18 18 19 20 21 22 22 22 22 22 22 22 23 23 22 21 20 18 15 14 13 11 10 9 8 8 8 10 11 12 13 14 16 18 20 21 21 20 19 20 21 21 22 23 24 25 26 27 28 28 30 31 31 29 29 28 28 28 28 29 29 28 27 27 27 26 25 26 25 24 24 23 24 25
14 13 14 15 16 17 17 17 18 18 19 19 19 19 20 21 22 23 23 22 22 23 23 24 24 23 21 20 18 16 15 13 11 9 8 8 8 9 9 10 12 15 16 18 19 20 20 20 20 22 23 22 22 23 25 24 25 26 28 29 29 30 31 32 32 31 30 29 29 29 28 28 28 26 27 27 26 26 27 27 26 26 24 24 24
13 13 13 13 14 15 16 17 18 20 21 21 21 20 20 21 22 23 23 23 24 24 24 25 25 24 23 21 19 16 15 13 11 9 8 8 9 9 10 12 14 17 18 19 19 19 19 19 20 22 23 24 25 26 25 24 25 26 27 28 28 28 29 30 31 31 30 29 29 29 28 28 28 27 27 27 26 26 27 27 27 26 25 25 25
14 14 14 14 15 15 16 18 20 21 21 21 21 22 22 22 22 22 22 23 24 25 25 25 26 25 24 23 20 16 15 12 10 10 10 10 10 11 12 13 15 18 19 20 20 19 19 19 19 20 23 25 25 25 24 23 24 24 24 26 27 28 29 30 31 30 29 29 30 31 30 31 30 30 29 28 26 25 26 26 26 25 24 24 23
16 16 17 17 17 17 17 18 20 20 20 21 22 23 23 22 22 22 22 23 24 25 26 27 26 24 23 20 16 14 14 11 11 11 11 11 11 12 13 15 16 17 18 20 20 20 19 19 19 20 22 24 24 24 23 23 23 23 23 24 26 28 30 31 32 31 31 32 33 33 33 33 33 31 30 29 27 25 26 26 25 24 23 22 22
16 17 17 16 15 15 15 16 17 18 18 19 20 20 20 21 22 22 23 23 23 25 26 26 24 23 21 17 15 15 14 13 13 12 11 11 12 13 14 15 16 17 18 19 20 20 20 20 19 19 20 22 23 23 24 24 24 25 26 27 28 30 31 31 31 31 32 32 33 32 32 33 33 31 29 28 26 26 26 26 26 24 23 22 23
15 15 15 13 13 13 14 14 15 16 17 17 18 19 19 20 20 21 22 23 24 25 25 24 22 21 19 16 15 15 14 13 12 12 11 12 13 13 14 15 17 18 19 19 20 20 20 20 19 19 20 21 22 24 25 26 27 28 30 30 31 31 31 30 30 30 30 30 29 29 29 30 31 29 27 25 24 23 24 25 25 24 23 22 22
13 14 13 13 13 13 13 14 15 15 16 17 18 19 19 19 19 19 20 22 22 22 21 20 18 16 14 13 13 12 11 11 11 11 12 13 14 15 16 17 18 18 19 20 19 19 19 19 19 20 20 21 22 24 26 27 29 31 32 33 33 33 32 30 29 28 27 26 26 26 26 27 28 28 26 23 21 21 22 24 25 24 23 22 22
12 13 13 13 13 13 13 14 16 17 17 18 19 20 20 20 18 17 18 19 18 17 15 14 13 12 12 11 11 12 11 12 12 13 14 15 16 17 18 18 18 19 19 19 19 18 18 18 19 20 21 22 23 24 26 28 30 32 33 34 35 35 32 29 27 25 24 23 22 23 24 25 25 25 23 21 20 21 22 23 22 20 18 17 16
11 12 12 11 12 12 13 14 16 17 17 17 18 18 19 19 18 17 17 17 18 17 15 13 12 12 12 12 12 12 13 13 13 14 15 17 18 18 19 19 19 18 18 17 18 18 18 18 19 20 22 23 24 25 26 27 29 31 32 34 35 34 30 27 24 22 20 20 20 20 20 21 20 19 18 18 18 18 18 17 15 14 12 11 11
11 11 11 11 12 12 13 14 15 16 16 16 16 17 17 18 19 18 17 17 17 16 15 15 14 13 14 14 14 14 15 14 14 14 15 16 17 18 18 18 18 17 16 16 16 16 16 17 18 20 21 23 24 25 25 25 25 26 28 30 30 29 26 24 22 19 17 17 18 19 18 18 18 18 18 17 16 14 13 12 11 9 8 7 6
Wind_Direction
195 198 200 202 204 206 209 212 213 213 214 214 213 213 216 218 216 217 221 225 223 218 218 222 223 223 220 220 225 230 229 229 231 233 235 235 233 233 234 232 232 237 243 246 250 260 268 270 269 267 263 261 263 269 273 272 272 271 268 272 274 269 268 269 272 284 288 291 299 310 316 313 306 305 312 317 310 302 300 295 292 297 303 308 311
196 198 200 202 204 207 209 212 214 215 217 218 217 216 217 219 220 219 222 225 226 222 221 223 224 223 220 221 226 231 232 232 233 235 237 238 237 235 236 236 236 240 245 249 253 258 263 267 268 269 269 267 265 268 274 272 265 265 265 265 267 267 267 268 269 277 286 292 301 308 311 315 312 305 304 306 305 304 303 298 295 297 299 301 302
194 196 198 201 204 208 210 212 214 215 217 220 221 221 221 221 223 224 226 226 225 225 225 227 227 225 223 223 225 229 233 234 234 236 240 243 243 241 241 242 242 245 249 253 257 259 257 259 263 268 271 270 269 272 277 275 268 267 270 272 271 269 268 267 264 266 276 289 300 304 305 310 313 311 308 304 301 301 300 298 297 299 299 299 298
192 193 195 196 197 202 207 212 214 215 217 219 222 223 224 225 226 227 229 229 228 228 228 229 230 227 223 223 225 228 230 232 234 237 241 245 248 247 246 247 249 252 256 260 262 261 256 254 257 264 269 268 266 269 276 278 274 272 276 281 280 276 271 267 264 264 269 277 288 295 299 304 309 314 316 312 309 307 305 305 304 303 299 296 294
195 192 191 190 188 189 199 207 212 213 214 216 220 223 226 229 230 229 231 231 232 232 231 230 230 227 223 223 225 227 230 232 233 236 240 243 246 248 249 252 254 256 259 264 266 266 260 254 255 258 262 264 263 263 269 275 279 280 279 282 287 289 282 271 265 265 266 270 279 289 296 298 303 310 315 316 316 314 311 309 307 304 302 299 295
203 200 195 192 192 193 198 204 207 209 211 212 214 220 225 230 232 230 231 233 234 235 235 233 231 228 226 226 227 229 231 231 231 234 239 242 244 246 247 251 255 256 258 260 264 267 264 258 258 258 258 260 260 261 265 271 276 280 280 279 285 292 290 280 270 267 267 270 276 285 291 293 296 303 307 309 309 308 308 308 308 308 307 307 305
209 209 204 202 199 198 202 207 206 208 211 211 212 214 218 227 231 229 229 232 234 236 238 236 233 231 231 231 231 232 232 230 230 232 236 239 241 242 243 247 250 253 255 257 259 262 262 260 259 259 257 257 258 260 264 267 272 276 276 276 278 282 285 284 279 274 272 274 279 284 287 290 292 295 299 302 299 297 299 303 306 309 310 311 311
206 208 207 208 206 205 211 216 216 215 213 212 212 212 211 217 226 225 225 228 231 234 237 238 237 235 235 236 236 236 234 231 230 231 234 236 237 239 241 243 246 249 252 254 256 258 259 258 257 257 258 258 260 262 263 264 268 270 272 272 272 273 277 280 280 279 276 274 278 282 284 287 289 290 293 295 292 291 296 299 299 301 305 307 307
196 199 202 204 207 210 216 221 225 226 220 216 215 214 211 213 222 226 225 226 229 231 234 238 240 238 238 238 238 238 236 234 233 234 235 235 236 238 239 241 244 247 250 252 254 257 259 258 256 257 258 259 261 264 264 265 266 267 268 268 267 268 270 271 273 274 273 271 274 277 278 280 283 285 287 288 286 289 294 295 293 295 300 302 303
194 198 202 203 204 209 214 220 226 228 225 224 224 223 222 222 225 230 229 227 228 230 231 235 239 241 241 239 237 237 236 236 236 237 238 238 238 239 239 240 242 244 248 250 252 255 258 258 258 258 259 261 262 264 264 264 264 265 265 266 265 264 263 265 267 267 266 264 267 270 270 271 277 280 281 285 288 288 289 289 289 293 298 300 300
174 186 203 212 209 205 206 213 222 226 226 227 229 229 232 234 236 239 238 233 231 231 232 233 236 239 241 240 238 236 235 236 238 239 240 240 240 240 240 241 241 242 245 248 251 255 256 257 258 259 260 261 263 264 264 264 265 265 265 266 266 265 262 262 264 264 262 260 262 264 262 265 274 279 281 284 288 288 288 288 288 289 292 294 295
116 121 141 187 204 208 207 210 219 226 227 228 229 229 233 236 239 242 241 237 237 238 235 233 235 237 239 240 239 237 237 238 239 240 241 241 241 241 242 243 244 244 246 248 251 255 257 258 258 259 260 261 263 265 266 266 267 268 268 269 269 268 266 262 262 263 262 259 259 260 261 265 273 280 283 286 289 291 291 290 287 284 284 284 285
98 99 96 115 152 184 203 210 218 226 230 231 230 229 230 231 232 235 236 237 241 242 236 232 232 235 237 240 240 238 238 239 240 241 242 243 243 242 242 244 245 246 248 249 251 253 256 258 259 259 260 262 263 264 265 267 269 269 270 271 271 271 269 265 262 261 263 262 260 261 265 268 272 279 286 289 289 290 291 290 288 286 284 283 285
75 72 71 80 84 85 122 166 192 213 223 227 228 229 230 232 231 232 233 235 240 242 237 233 233 235 237 240 241 241 241 240 240 241 243 245 245 244 243 245 246 248 249 250 251 252 254 255 256 258 259 261 262 262 262 265 267 267 269 271 274 276 275 271 266 261 259 259 258 261 267 270 272 280 288 290 289 289 288 286 287 288 288 287 288
68 63 62 65 60 56 65 81 93 112 186 214 224 230 234 240 240 238 236 236 239 242 240 236 236 238 239 239 239 239 240 240 241 242 243 245 246 244 243 243 244 248 251 252 253 253 254 255 256 257 259 259 260 261 261 263 264 266 268 270 274 277 277 277 275 269 263 260 259 261 267 271 274 279 285 288 288 290 290 286 284 286 286 287 287
68 65 60 59 61 55 48 51 57 53 46 47 209 215 232 245 247 243 241 242 243 246 246 242 240 241 242 244 242 237 233 233 235 237 239 241 242 242 241 241 241 244 248 251 253 255 256 256 256 257 259 260 260 260 261 262 262 264 266 268 270 272 274 275 276 275 272 268 266 267 269 273 276 278 281 284 284 288 289 286 285 285 283 283 285
53 54 50 46 46 44 37 34 38 35 21 15 32 31 12 343 305 269 248 242 242 242 245 247 246 246 246 249 252 251 245 239 235 232 233 235 238 240 240 242 243 245 248 249 251 254 256 257 257 258 258 259 260 260 260 259 260 260 262 263 265 267 269 271 273 273 273 272 272 272 273 275 276 276 278 279 278 280 280 278 282 283 279 277 278
39 40 40 37 36 36 29 21 20 8 348 352 15 11 357 351 334 309 279 259 252 247 247 248 248 250 251 252 254 257 257 254 250 246 242 241 241 240 240 241 244 248 251 252 252 253 255 256 257 258 258 260 260 260 259 258 257 257 258 259 260 262 265 268 269 270 271 272 272 272 272 273 274 274 275 275 275 276 273 273 278 278 271 265 267
26 28 32 35 33 29 20 10 4 344 329 344 11 15 350 351 351 328 300 280 269 260 256 253 250 250 253 256 257 257 256 255 255 254 253 252 252 252 249 245 245 248 253 256 257 257 257 257 256 255 257 259 260 260 260 258 256 256 256 255 255 259 264 267 268 269 271 271 271 272 272 273 274 274 274 275 275 274 271 273 277 274 266 263 265
14 16 24 27 20 13 9 359 344 335 329 338 353 1 351 344 348 340 320 300 286 271 263 261 259 258 258 259 260 258 255 255 256 256 256 255 257 259 257 253 253 255 257 258 260 261 262 262 261 259 257 256 257 258 258 257 256 256 255 252 252 259 266 269 270 272 273 272 273 273 274 275 275 275 275 275 276 275 273 274 276 275 270 265 265
15 16 19 17 5 358 1 360 352 348 343 339 338 337 335 332 333 335 333 321 309 298 287 283 281 278 275 270 265 260 256 256 258 260 260 259 260 261 261 261 263 264 264 263 262 262 264 265 266 265 263 259 257 256 256 256 256 256 255 255 258 265 272 274 275 275 273 272 274 274 274 275 275 275 275 276 276 277 276 274 274 274 272 269 266
8 10 11 9 1 354 353 353 351 350 348 345 341 336 328 323 326 331 331 325 319 310 307 311 307 300 293 282 274 268 264 263 267 269 270 270 269 268 267 268 268 267 265 264 262 263 266 268 270 271 269 265 261 259 258 256 255 256 258 261 266 271 275 277 276 274 271 270 271 271 272 273 273 274 274 275 276 277 276 274 272 271 272 273 272
358 358 359 359 357 355 350 344 342 342 345 349 349 342 333 325 325 327 324 322 321 317 322 334 333 328 325 312 295 287 281 277 278 279 280 280 276 273 271 269 266 264 264 266 268 270 272 272 274 275 272 266 263 262 259 256 255 256 259 263 267 270 272 273 274 272 270 269 269 270 271 272 271 271 272 272 274 275 275 275 274 273 273 274 274
359 356 355 354 352 351 347 340 338 341 347 350 349 347 341 332 326 323 321 321 320 320 333 348 349 346 344 337 324 311 301 295 291 289 291 289 284 278 273 269 265 265 267 270 273 276 275 273 273 273 270 265 262 260 257 253 252 253 255 259 263 266 268 270 272 273 272 270 268 269 271 271 271 270 271 272 274 275 276 276 277 276 275 275 275
1 360 356 352 351 351 350 346 346 349 353 355 356 358 358 349 339 330 323 321 319 318 327 349 5 6 359 349 341 334 330 327 322 316 314 312 307 295 282 274 270 270 272 274 277 279 279 277 275 272 268 264 260 259 258 256 254 252 253 256 258 261 264 267 270 273 273 271 269 269 271 273 273 273 274 275 275 275 275 276 276 276 275 274 274
357 357 354 349 346 350 353 354 353 353 356 359 1 4 5 3 1 355 344 339 336 329 324 334 352 353 349 341 333 328 328 329 327 325 322 318 317 314 301 287 280 279 281 286 289 290 290 288 284 281 276 270 263 259 260 261 260 257 255 254 255 256 259 265 270 274 275 274 272 272 274 277 278 277 276 275 273 272 272 272 273 273 272 271 271
349 347 348 347 346 348 351 353 351 350 352 356 357 358 357 356 355 356 356 355 350 343 335 327 326 330 331 330 326 323 323 320 316 319 319 312 308 310 306 299 296 296 297 300 301 302 304 303 299 296 293 284 273 265 263 262 261 259 258 258 260 262 266 271 274 274 273 272 272 273 275 276 276 275 274 271 268 269 269 268 268 269 270 269 268
344 341 341 343 346 349 350 349 348 347 345 345 347 350 353 351 346 346 353 356 351 344 335 326 324 324 323 322 320 319 322 320 315 318 320 313 305 302 299 298 304 307 303 299 298 299 300 300 297 297 298 297 289 279 272 266 262 261 262 264 267 269 271 273 272 272 272 272 270 270 271 271 270 270 270 268 267 267 267 265 264 266 268 267 264
336 336 338 339 340 344 345 345 346 346 344 340 338 337 343 348 346 341 342 345 345 343 339 335 333 330 324 320 314 312 316 319 317 319 321 314 301 293 292 295 299 297 292 292 293 294 294 294 292 290 291 293 291 285 279 273 267 264 263 264 266 268 269 268 267 268 270 270 269 268 268 268 268 267 267 266 267 268 267 265 263 264 265 262 259
337 334 336 339 339 338 340 341 342 343 343 341 338 332 329 333 337 337 334 330 327 330 334 335 332 328 323 317 309 303 306 311 312 315 316 313 306 302 301 300 299 296 294 294 294 295 295 295 293 289 285 282 280 279 280 280 276 272 270 269 269 268 268 267 267 269 270 269 267 266 266 267 267 268 268 267 268 271 270 267 265 264 262 258 258
341 339 339 341 340 337 336 336 337 339 339 339 340 337 332 328 327 329 330 326 320 317 318 319 320 319 319 317 312 303 301 304 306 307 306 306 310 313 312 309 306 305 304 302 298 297 296 294 291 289 284 277 273 274 277 278 277 277 277 277 275 273 270 269 270 271 270 269 267 266 265 266 266 268 270 270 271 272 272 271 268 263 261 258 258
340 339 339 338 335 331 329 329 331 333 334 334 335 337 337 334 330 327 325 322 317 313 311 311 311 311 313 318 316 309 304 305 306 302 298 299 308 315 316 313 313 314 314 312 307 301 297 291 286 284 282 276 273 273 275 276 277 278 278 278 277 275 273 272 273 273 270 268 266 265 265 266 266 269 271 272 272 272 272 271 267 262 260 260 259
347 343 339 334 328 327 327 328 329 330 330 330 330 330 332 331 328 325 324 323 320 314 308 303 305 307 310 312 309 303 303 307 308 304 298 297 304 312 315 316 320 326 332 331 321 310 304 296 289 286 284 279 277 277 277 277 278 278 276 275 275 275 275 276 276 273 270 269 268 268 268 268 269 270 273 274 272 271 270 269 267 263 261 260 259
353 349 343 336 331 331 331 329 327 325 324 324 324 324 324 323 322 320 320 321 322 318 307 296 300 308 309 307 302 299 300 305 307 305 301 300 302 308 314 322 334 347 354 353 341 326 317 308 300 296 292 287 284 283 282 281 282 281 278 277 277 277 279 279 278 275 273 272 273 273 274 274 273 272 273 274 273 270 268 267 266 262 259 257 259
345 346 344 342 341 340 338 334 331 327 324 322 321 320 319 319 318 316 314 313 315 313 305 298 301 307 308 305 305 309 309 307 303 301 298 298 302 310 322 335 347 355 359 1 357 347 339 331 322 315 309 302 297 292 289 288 289 287 285 284 283 283 283 281 279 278 277 275 274 274 274 274 274 273 272 272 270 268 265 264 262 260 257 257 259
336 337 341 343 342 340 338 336 335 333 329 325 322 319 317 316 314 312 310 308 308 308 307 305 304 306 303 301 310 321 323 314 304 301 298 297 310 327 339 347 353 356 359 2 1 356 353 349 344 339 334 330 326 321 316 312 310 307 303 300 299 300 299 295 288 283 279 276 275 275 275 275 276 276 274 272 271 269 266 264 262 261 259 259 260
332 332 336 338 338 336 335 334 333 332 330 327 324 320 317 315 312 310 308 306 305 305 306 305 304 305 304 301 308 319 321 311 300 304 304 305 319 333 344 352 354 353 355 358 356 350 345 341 338 337 335 333 331 330 327 325 323 321 318 315 314 315 315 313 308 300 291 287 285 283 282 282 281 279 278 276 274 272 271 268 265 263 262 261 261
334 332 333 332 332 333 333 333 331 330 328 326 324 321 318 315 313 311 308 306 304 303 303 301 298 301 305 304 307 311 308 294 287 296 303 311 324 331 337 342 343 341 342 344 345 343 337 329 325 325 325 324 323 323 322 320 318 317 317 315 313 311 310 310 311 310 306 305 303 301 298 295 292 288 283 278 275 274 275 274 270 267 264 263 260
334 333 331 328 327 328 329 328 326 325 323 321 321 321 319 317 315 312 308 306 304 302 302 301 298 298 299 302 306 307 299 288 287 295 301 309 317 319 322 325 327 329 330 330 331 333 330 324 320 317 317 318 319 319 317 314 312 312 312 311 309 307 307 307 308 306 304 303 303 303 302 301 299 298 295 289 285 282 280 277 272 267 264 261 259
333 333 330 325 324 325 326 324 321 319 318 317 317 319 318 315 314 313 311 308 304 300 299 300 299 298 298 298 298 295 289 285 286 288 291 295 299 304 309 311 312 316 321 323 324 326 326 323 321 318 316 317 317 315 311 310 310 309 308 307 306 303 302 302 302 302 301 301 301 300 298 296 296 297 297 296 295 293 289 283 277 271 266 264 263
330 331 329 325 323 323 322 320 318 317 317 316 316 316 315 312 311 310 310 308 305 301 296 293 292 294 295 293 288 284 283 283 278 274 276 280 285 294 300 302 305 313 320 324 326 327 325 324 322 321 318 316 314 312 310 309 308 306 305 304 303 301 300 300 301 301 302 302 302 300 298 296 295 294 291 291 292 292 291 288 285 281 275 272 271
331 331 329 325 322 319 316 315 315 315 316 315 314 312 311 311 311 309 307 307 308 305 299 293 290 289 287 286 283 280 277 272 266 262 265 271 279 289 298 305 312 320 324 326 327 329 328 325 322 320 319 315 312 311 311 309 306 305 304 302 301 300 299 299 300 301 302 301 300 298 296 295 294 291 288 287 287 287 287 287 287 285 282 278 276
334 330 326 322 318 312 308 310 312 313 312 312 312 310 310 312 313 312 309 308 309 307 302 297 293 288 284 284 283 274 261 254 253 256 264 272 280 289 300 311 318 323 325 324 324 326 326 323 319 317 315 312 310 310 309 306 303 303 303 302 300 298 297 296 296 297 298 297 295 294 292 291 290 289 288 288 287 286 285 284 284 285 284 282 280
332 327 323 317 312 305 301 302 304 303 304 305 305 305 306 306 308 309 309 309 309 307 304 300 297 291 287 285 277 257 240 237 244 253 265 276 285 295 305 313 318 321 322 322 322 322 322 320 318 315 312 310 310 309 307 304 302 301 300 299 299 297 296 295 295 295 295 294 292 291 290 290 290 290 290 290 290 288 286 284 284 284 285 284 282
328 323 316 311 307 301 295 294 295 296 300 302 302 302 303 303 303 304 305 306 307 306 303 301 299 295 290 283 264 237 226 234 245 254 265 278 289 299 307 311 313 315 318 319 319 317 315 314 313 312 310 308 307 305 303 301 300 298 296 295 295 295 296 295 294 294 293 292 291 292 292 292 291 291 290 289 289 287 286 284 282 282 283 284 284
326 322 317 311 305 299 294 293 296 299 303 305 304 304 306 306 305 304 302 301 302 304 303 300 298 295 288 274 249 230 230 241 251 259 269 279 287 295 301 306 309 310 312 313 314 313 312 311 309 307 306 306 303 300 298 297 296 294 293 293 294 295 295 295 294 292 291 291 291 292 292 291 291 290 289 288 287 286 284 283 281 281 282 283 283
325 321 315 309 306 304 303 303 305 306 309 312 311 309 308 305 304 304 302 298 296 298 300 300 298 292 282 265 246 237 239 246 254 263 273 280 287 294 299 303 305 306 307 309 311 311 310 309 305 302 301 300 298 296 294 293 292 292 291 293 295 296 296 294 291 289 288 288 289 289 288 288 288 288 286 285 284 283 281 281 282 283 283 281 280
329 324 321 318 316 316 317 319 319 318 317 318 316 312 308 305 303 304 305 302 298 295 295 294 288 280 267 253 246 248 253 259 265 273 280 286 292 297 300 301 302 303 305 308 309 308 307 305 303 300 298 297 296 294 292 290 289 289 290 291 294 295 294 291 288 285 286 286 286 286 286 286 285 285 284 282 280 279 279 279 280 282 282 281 280
337 333 330 324 319 318 323 327 328 326 322 319 317 316 315 313 309 307 309 310 309 308 304 295 285 275 267 261 261 264 267 270 276 282 288 293 296 298 299 301 302 304 306 307 307 306 305 303 301 299 298 296 295 295 293 291 289 287 287 289 291 292 290 287 284 284 285 286 286 287 287 285 282 281 282 280 278 277 278 278 279 280 281 280 277
345 340 334 325 319 321 326 329 328 325 321 318 318 319 321 321 319 316 314 314 314 314 311 303 292 284 280 278 278 278 279 282 286 289 292 295 297 298 299 301 303 305 306 306 305 304 304 303 301 299 297 296 296 296 295 293 290 287 285 286 288 289 288 284 282 283 284 286 286 286 284 282 280 279 278 277 276 275 275 274 274 275 273 269 267
350 343 338 330 324 324 327 326 323 321 320 319 319 321 323 323 322 320 318 316 314 311 306 300 293 288 284 283 283 285 287 290 292 293 295 296 298 300 302 303 305 306 306 306 305 305 304 303 302 300 299 299 299 299 298 296 293 290 287 287 287 288 287 285 284 283 282 281 281 281 280 279 278 274 271 270 270 269 267 265 262 261 259 256 251